Tracking 25648 objects as of 17-May-2022
HD Live streaming from Space Station
objects crossing your sky now

COSMOS 2251 DEB

Track COSMOS 2251 DEB now!
10-day predictions


NORAD ID: 37996
Int'l Code: 1993-036BQX
Perigee: 739.6 km
Apogee: 1,181.2 km
Inclination: 74.1 °
Period: 104.1 minutes
Semi major axis: 7331 km
RCS: 0.0038 m2 (small)
Launch date: June 16, 1993
Source: Commonwealth of Independent States (former USSR) (CIS)
Launch site: PLESETSK MISSILE AND SPACE COMPLEX (PKMTR)

Note: This is SATELLITE DEBRIS
aabbcc
Your satellite tracking list
Your tracking list is empty




NASA's NSSDC Master Catalog

Two Line Element Set (TLE):
1 37996U 93036BQX 22136.38103327  .00002436  00000-0  15887-2 0  9992
2 37996  74.0725 280.4825 0301168 341.0084  17.9995 13.82987525379299
Source of the keplerian elements: AFSPC